Wind_Speed
49 50 50 48 47 45 44 43 41 39 37 34 31 29 27 26 25 21 21 25 27 26 26 22 20 21 19 19 21 24 27 32 32 30 30 29 27 28 29 29 29 28 29 31 31 30 29 28 25 22 21 20 21 22 22 20 17 15 13 12 11 11 12 13 13 13 12 12 13 13 13 12 12 11 11 10 10 10 11 12 13 14 16 15 14 13
49 50 48 46 45 43 43 42 40 38 35 33 32 30 29 28 27 25 24 26 26 24 24 20 18 19 18 22 26 26 28 32 32 29 29 27 24 25 27 27 27 27 28 29 27 27 27 26 24 22 20 20 21 22 21 19 17 15 13 12 11 11 12 13 13 13 13 13 14 15 15 14 14 13 12 12 11 11 11 12 14 16 16 16 15 14
50 49 46 45 44 43 42 42 40 38 35 34 33 32 31 29 27 27 28 28 26 24 22 19 16 15 21 31 36 33 31 31 30 29 28 26 24 24 24 24 26 27 28 26 24 24 24 24 23 22 21 21 22 23 21 19 17 15 14 13 12 12 12 13 13 13 13 14 15 16 17 16 15 14 14 14 13 13 13 14 16 16 16 15 15 15
50 47 45 44 44 43 42 41 40 37 36 36 35 34 32 29 26 26 28 29 27 24 20 18 14 16 29 39 42 39 35 33 30 30 29 26 26 26 25 24 27 28 26 24 23 23 22 22 22 22 22 23 23 23 21 19 17 15 14 14 13 12 12 13 13 14 14 15 15 17 17 17 17 16 15 15 15 14 14 15 15 15 15 15 15 15
47 45 43 43 43 42 42 41 40 38 36 36 35 34 32 28 24 23 27 29 27 24 22 20 16 20 35 42 42 41 38 35 32 30 29 28 30 31 27 25 25 25 23 21 22 23 23 23 22 22 23 23 23 22 21 19 17 16 15 14 14 13 13 13 14 14 15 15 16 17 18 17 17 17 16 15 15 14 14 14 15 15 15 15 16 16
47 44 42 42 42 41 41 40 39 36 34 35 35 33 31 26 22 24 29 30 29 26 24 24 19 21 36 42 40 41 38 35 31 28 29 30 31 31 26 23 22 21 19 18 20 22 23 23 23 24 23 23 23 22 22 20 18 17 16 15 15 15 14 14 14 15 15 15 17 18 18 17 17 16 16 15 15 15 15 15 15 16 16 17 17 17
46 44 42 42 42 40 39 38 37 35 35 35 32 32 30 24 24 29 31 31 30 25 22 24 23 21 34 43 40 39 36 33 30 27 28 30 31 29 26 23 21 18 16 15 18 21 22 22 23 24 24 23 23 23 22 20 18 17 17 17 17 16 15 14 15 15 15 16 17 18 18 17 17 16 16 16 15 15 16 16 16 17 18 18 18 19
45 45 44 43 42 40 39 37 36 36 36 33 28 30 29 24 27 32 34 33 30 25 21 23 25 21 30 41 40 37 34 31 29 27 29 31 33 32 27 23 19 15 14 14 16 18 20 21 22 24 23 23 24 24 23 21 19 18 18 18 18 17 16 15 15 15 15 16 17 18 18 17 17 17 16 16 16 17 17 17 17 17 18 18 19 19
44 46 45 43 43 41 38 36 35 36 35 29 26 29 27 25 30 32 34 32 28 27 25 24 28 26 29 39 40 37 35 32 31 30 31 32 35 34 28 22 20 18 15 14 15 17 19 20 21 22 22 23 25 25 23 21 19 19 19 19 19 18 17 16 15 15 15 16 17 17 18 17 17 17 17 17 17 18 18 18 17 17 17 18 18 19
44 44 43 42 42 40 37 36 36 37 34 28 27 29 27 28 32 32 32 32 28 29 29 26 28 29 32 38 41 39 38 36 34 32 31 33 34 33 27 22 22 22 17 14 14 17 20 21 21 22 22 23 25 24 22 21 20 20 20 20 19 19 18 17 16 16 16 16 17 17 17 17 17 17 18 18 18 18 18 18 17 16 17 17 18 18
43 42 41 41 41 38 36 35 36 36 32 28 29 30 29 32 35 33 31 31 30 32 32 28 29 30 33 38 41 38 37 36 35 34 32 32 32 31 28 25 25 23 20 18 19 19 22 23 23 24 24 25 25 24 22 22 21 21 20 21 20 20 20 19 17 16 17 17 17 17 17 18 18 18 18 18 18 17 17 17 17 17 17 17 17 18
44 43 42 40 40 38 37 36 36 36 32 31 32 32 32 35 38 37 34 33 34 35 32 28 30 32 31 35 40 39 37 37 36 35 33 32 32 32 31 28 26 23 22 24 24 22 23 25 26 25 25 26 26 25 24 23 22 21 21 21 20 21 21 19 18 17 17 17 16 17 18 19 19 18 18 18 18 18 17 17 17 17 17 17 17 17
46 44 41 40 40 39 39 39 38 38 35 35 36 36 37 40 42 42 40 40 39 36 31 27 30 35 34 33 36 37 37 38 37 34 33 33 33 33 32 30 27 24 23 24 24 22 21 24 26 26 26 26 26 26 25 23 22 22 22 21 20 21 20 19 19 19 19 17 17 18 19 19 19 19 18 18 18 18 18 18 18 18 18 18 18 17
47 45 44 42 41 40 40 41 41 41 39 39 41 41 42 45 47 47 46 45 42 36 33 31 32 38 38 35 34 34 36 38 38 37 38 38 37 36 33 30 25 21 20 21 21 21 20 21 24 25 25 25 25 25 24 23 23 23 22 21 21 21 20 20 20 20 20 19 19 19 19 19 19 19 19 19 19 20 19 19 19 18 18 18 18 18
48 47 47 46 44 42 42 42 40 39 38 39 40 41 43 46 49 48 46 45 43 39 36 36 39 42 41 37 36 37 38 38 39 41 42 42 41 38 33 29 24 20 19 19 20 23 21 21 24 24 23 23 23 24 24 24 24 23 22 22 21 21 21 20 20 20 20 20 20 20 20 20 20 20 20 20 20 21 21 20 20 19 19 19 19 18
47 46 45 45 45 43 42 41 39 37 36 37 40 41 42 45 47 46 43 42 42 40 38 40 45 47 44 40 38 40 42 41 39 40 41 41 40 37 33 29 25 22 22 20 21 24 24 24 25 25 24 23 23 24 25 25 25 24 23 22 22 21 21 21 21 21 20 20 20 20 21 21 21 21 21 21 21 21 22 21 21 20 19 19 18 18
45 44 43 43 44 42 41 40 39 39 38 38 41 42 41 44 47 45 41 40 42 41 41 43 47 49 46 44 42 41 43 43 41 40 39 39 38 35 32 28 23 21 22 21 21 24 26 27 26 26 25 25 25 26 26 26 26 25 24 23 22 21 21 21 21 20 20 20 20 21 21 22 22 22 22 22 23 22 22 22 22 21 20 19 18 18
44 43 42 42 42 42 41 38 37 38 37 38 39 38 39 45 49 46 41 41 42 42 43 45 47 47 46 45 44 42 41 43 42 41 39 38 36 33 30 25 20 19 20 21 22 23 26 28 27 27 27 27 27 27 27 27 26 25 24 23 22 22 21 21 20 20 21 21 21 22 22 23 23 23 23 23 24 24 23 23 23 23 22 21 19 18
41 40 40 41 40 39 39 37 37 37 38 38 36 35 39 45 49 50 47 45 45 45 46 46 46 45 44 44 42 38 36 37 36 35 35 34 33 32 28 24 21 19 20 22 22 21 23 28 28 28 28 28 28 28 28 27 27 25 23 22 23 22 21 20 21 21 21 21 22 23 23 23 23 23 23 24 24 24 24 24 25 24 23 21 19 19
40 38 38 39 38 36 37 39 40 40 40 40 37 35 38 41 46 52 52 50 49 47 46 47 47 46 45 43 38 32 32 33 31 30 30 30 30 30 26 23 23 24 24 25 24 20 21 26 28 29 30 29 29 29 28 27 26 25 23 23 23 21 20 20 21 21 22 22 23 24 24 24 23 23 24 24 25 25 25 25 25 25 24 22 21 20
39 37 36 36 37 36 38 41 43 42 40 39 39 37 38 41 44 49 52 53 52 50 48 48 49 47 44 41 35 32 33 35 34 33 31 30 29 29 26 24 24 25 25 26 26 23 21 24 28 30 31 30 30 29 27 27 26 25 25 25 24 22 21 21 21 21 22 23 24 25 25 25 24 24 24 25 25 25 25 26 26 26 25 24 22 21
40 40 36 34 37 40 41 40 38 37 36 35 36 36 37 41 44 46 49 51 51 51 50 49 48 45 41 38 36 35 35 35 36 35 33 31 30 28 28 27 27 27 27 28 28 26 24 25 28 30 31 30 30 29 28 27 26 25 26 26 25 23 23 22 22 22 23 24 25 26 26 26 25 25 25 26 26 26 26 27 27 27 27 26 24 23
40 40 36 33 35 39 38 35 30 29 31 32 34 36 37 41 44 46 46 45 46 48 49 48 45 40 38 38 37 37 37 36 36 35 33 32 31 29 29 30 31 31 31 31 30 28 26 27 28 28 28 28 28 28 27 27 26 27 28 28 26 24 24 23 23 24 25 26 26 26 27 27 26 26 27 28 28 28 28 28 29 28 28 28 27 25
40 40 37 33 34 34 31 29 26 25 30 34 36 38 39 41 44 47 45 42 42 45 49 50 47 42 40 39 39 39 38 38 38 37 35 33 32 30 29 31 33 33 33 32 31 29 27 26 27 27 27 29 29 28 28 28 28 29 30 29 27 26 25 25 26 26 27 27 27 27 27 27 27 28 28 29 29 30 30 30 30 30 30 29 28 27
40 41 40 37 36 33 30 28 29 31 34 37 37 38 39 40 44 47 45 43 42 44 49 52 51 47 43 39 39 39 38 40 40 39 38 37 34 31 30 31 33 33 33 32 32 31 28 27 28 29 30 31 30 29 29 29 30 30 29 29 28 27 26 26 27 28 29 28 28 28 28 29 29 30 30 30 31 32 32 32 32 31 31 31 30 29
40 41 41 40 38 36 34 35 36 36 38 40 40 42 42 42 47 48 44 43 43 42 47 52 53 51 46 41 40 40 39 39 38 37 37 37 36 34 34 34 35 35 34 33 33 32 30 30 31 32 32 31 30 30 30 30 30 29 29 29 29 27 27 28 29 30 30 30 30 30 30 30 31 31 31 32 33 34 34 34 34 33 32 32 32 31
42 43 42 39 37 35 34 32 33 34 35 38 42 46 45 45 49 48 42 42 43 41 42 49 53 53 47 43 42 41 41 40 40 39 37 36 36 35 34 34 35 36 36 36 35 32 32 34 34 33 32 31 30 31 31 30 30 30 29 29 29 28 29 29 30 31 31 31 31 32 32 32 32 33 33 33 34 35 35 35 35 35 34 34 34 33
43 44 42 38 35 34 32 30 31 31 32 35 41 46 47 47 49 49 44 42 41 40 40 44 51 51 45 42 41 41 41 41 40 39 37 34 34 33 33 33 33 34 35 36 36 33 33 36 36 33 32 31 32 32 31 30 30 30 29 29 29 30 30 31 31 32 32 33 33 33 34 34 34 34 34 35 35 36 36 37 36 36 35 35 35 34
43 44 43 39 36 36 34 31 32 31 31 34 39 44 48 49 51 51 49 46 42 40 41 41 44 46 42 38 37 34 34 34 34 35 35 33 31 30 30 31 31 31 33 35 36 35 34 35 35 34 32 32 32 31 30 30 30 30 30 30 31 31 32 32 33 33 33 34 35 35 35 35 35 35 35 35 36 37 37 37 37 37 36 36 36 35
45 44 43 40 37 37 35 32 32 32 33 35 39 44 48 49 50 51 50 49 46 43 43 41 39 40 40 38 35 32 31 31 31 31 31 30 29 28 30 32 32 31 32 34 36 36 34 34 35 34 33 32 32 31 31 31 31 31 31 32 32 33 33 34 34 34 35 35 36 36 37 37 36 36 36 36 37 37 38 38 38 37 37 36 36 36
43 40 40 40 38 38 36 33 33 35 38 40 41 45 49 49 48 49 49 49 49 47 46 44 41 40 40 39 36 32 30 29 28 28 28 29 30 30 31 33 33 31 32 34 37 37 35 35 35 33 32 32 32 33 33 33 33 33 33 33 34 34 35 36 36 36 36 36 37 37 37 38 37 37 38 38 38 38 38 38 38 37 37 37 36 36
36 32 34 38 39 38 37 36 35 37 41 44 43 45 49 50 48 47 45 46 49 50 49 47 44 40 37 35 33 31 31 31 30 30 31 32 32 32 32 33 32 31 32 33 36 37 37 36 35 34 33 33 34 35 34 34 34 34 34 34 35 35 36 37 37 38 38 38 38 38 38 38 38 38 38 38 38 39 39 38 38 38 37 37 37 37
35 32 33 37 39 39 38 38 36 37 41 45 46 44 46 48 48 46 44 43 46 49 47 43 41 40 37 34 32 32 33 33 32 32 32 32 31 30 31 31 30 31 33 34 35 37 37 36 36 35 34 34 34 35 35 35 35 35 35 35 36 37 38 38 39 39 39 39 39 38 38 38 38 38 38 38 38 38 38 38 38 37 37 37 37 37
38 35 34 36 39 39 38 38 37 36 39 42 44 45 45 45 45 42 41 42 44 46 43 38 36 36 35 33 31 30 30 30 30 30 29 30 29 27 28 30 30 31 33 34 35 37 37 37 36 34 33 34 35 35 35 36 35 35 35 36 37 38 39 40 40 40 40 40 40 39 39 38 38 38 38 38 38 38 38 38 38 37 37 37 37 37
41 39 37 36 40 40 37 37 37 37 37 37 40 45 46 45 44 40 38 39 41 42 41 37 35 32 31 31 30 29 29 28 28 26 25 26 26 26 25 26 28 31 33 34 35 36 37 36 35 34 34 35 35 36 36 36 36 36 36 37 38 39 40 40 40 40 40 40 41 40 39 38 38 38 38 38 38 38 38 38 38 37 37 37 37 37
40 42 40 38 42 43 38 38 38 37 36 35 36 40 45 47 46 43 39 38 39 42 41 38 35 33 31 29 30 30 30 29 27 25 23 24 27 28 27 25 25 28 30 32 32 33 34 34 34 34 35 35 35 35 35 36 36 37 37 38 38 39 39 40 40 41 41 41 41 41 40 39 38 38 38 38 38 39 39 39 38 38 37 37 37 37
39 42 42 40 42 44 42 40 40 38 36 35 35 36 40 45 47 44 40 39 40 42 43 40 38 36 33 31 30 31 32 32 29 25 23 23 27 30 31 29 27 26 27 28 29 30 32 33 34 34 34 35 35 35 35 36 37 37 37 38 38 38 39 40 41 42 42 42 41 40 39 38 38 38 38 39 39 39 39 39 39 39 39 39 39 38
36 40 41 38 39 42 43 42 41 39 37 36 36 36 36 41 45 44 41 40 41 42 43 42 41 40 38 35 33 34 35 33 29 24 21 23 26 28 30 29 27 26 27 27 28 29 30 31 33 34 34 34 34 34 35 36 36 36 36 36 37 38 39 41 42 42 42 41 40 39 38 38 38 39 39 39 40 40 40 40 41 41 41 40 40 40
36 39 40 38 36 37 39 38 39 40 38 36 36 36 34 35 40 42 41 42 42 40 41 42 42 42 42 39 36 36 35 32 27 23 22 23 25 26 27 27 27 26 26 26 27 28 29 31 32 32 33 33 33 33 34 35 35 35 35 36 37 39 40 41 42 41 41 39 38 37 38 38 38 38 39 39 39 39 40 40 41 41 42 42 41 41
35 38 40 39 36 36 35 33 34 37 38 36 36 36 32 28 30 35 38 39 39 38 38 39 40 42 42 40 38 37 35 31 27 25 25 25 26 26 26 26 25 24 24 25 27 28 29 30 30 31 31 32 32 33 33 33 33 34 35 37 38 40 40 40 40 39 38 37 38 38 38 38 37 37 38 38 38 38 39 39 39 40 41 41 42 42
33 35 37 38 36 35 34 32 32 34 35 35 35 35 32 27 26 28 31 33 35 36 37 37 38 39 40 39 36 34 34 32 29 28 28 27 27 27 26 24 23 23 24 25 27 27 27 28 29 29 30 30 31 32 33 33 34 35 36 37 38 39 39 38 38 37 38 38 39 39 38 37 38 38 39 39 39 39 39 39 39 40 40 40 41 41
31 32 34 35 35 34 34 33 33 33 33 33 33 32 31 30 28 27 28 30 33 35 36 37 39 39 38 36 33 31 31 30 28 28 28 27 27 25 23 22 22 23 24 26 26 26 26 27 28 29 29 30 31 32 33 34 34 35 36 36 37 37 37 37 37 38 39 39 39 38 38 39 40 40 40 40 40 40 40 41 41 41 41 41 42 42
30 29 31 33 34 35 35 35 35 33 32 31 30 29 29 29 28 28 27 29 32 34 35 36 38 38 36 34 33 31 30 29 28 28 27 26 25 23 21 21 23 24 25 26 26 26 27 28 28 29 29 30 31 32 32 33 34 34 35 35 35 36 37 38 38 39 38 38 38 39 40 41 41 41 41 41 41 41 42 42 42 43 43 43 43 44
29 28 29 30 31 31 32 32 33 32 31 30 28 27 27 27 28 29 28 26 28 31 33 35 36 36 33 32 31 31 30 28 27 26 26 25 24 22 21 21 22 23 24 25 26 26 26 26 27 28 29 30 30 31 32 32 33 34 35 35 36 37 37 38 37 37 37 38 39 40 40 40 41 41 41 42 42 43 43 44 44 45 45 45 46 46
28 26 27 28 27 26 27 28 29 29 29 28 28 27 25 22 23 27 28 25 23 22 22 24 26 27 29 30 29 28 27 25 24 24 24 24 23 21 20 20 21 22 24 24 24 24 24 25 26 27 28 29 30 30 31 31 32 33 34 35 35 36 36 36 36 37 38 39 39 39 40 40 41 42 42 43 44 44 45 45 46 46 47 47 48 48
27 25 25 26 25 25 25 26 27 28 27 26 25 25 23 19 19 22 23 23 22 20 19 20 21 22 24 26 25 24 23 22 22 23 22 22 21 20 20 20 22 23 24 23 23 23 24 25 26 27 28 29 30 30 30 31 32 32 33 33 33 34 35 36 37 37 38 38 38 39 40 40 41 41 42 43 43 44 45 46 47 47 48 49 49 49
26 24 23 24 24 24 25 25 27 28 27 25 23 23 22 19 18 20 22 22 22 22 22 23 23 23 23 23 23 22 21 21 22 22 21 21 21 21 21 23 23 23 23 22 23 24 25 26 27 27 27 28 28 29 29 30 30 31 32 32 33 35 35 36 36 36 37 37 37 37 38 39 39 40 41 42 43 44 45 46 46 47 48 49 49 50
25 24 23 22 23 23 23 23 25 26 26 24 23 22 21 20 20 21 22 23 23 23 23 23 23 23 22 22 22 21 21 22 23 22 22 22 22 23 23 23 23 22 22 23 24 24 25 25 25 25 25 26 27 28 28 29 30 31 32 32 33 34 34 34 34 34 34 35 35 35 35 36 37 38 38 39 40 40 41 41 42 43 44 44 45 45
25 25 23 22 22 22 22 23 24 26 26 24 23 22 21 21 22 22 22 23 23 23 23 23 23 22 22 22 22 22 22 23 23 22 23 23 23 24 23 23 22 23 23 23 24 24 24 24 24 25 26 26 27 28 29 29 30 30 30 30 30 31 31 31 31 31 31 32 32 32 32 32 32 32 32 33 33 33 34 35 35 36 36 36 37 37
21 23 23 23 22 23 23 23 23 22 20 19 19 19 19 20 21 21 22 22 23 23 23 23 23 23 23 23 23 23 23 23 23 23 23 24 24 24 23 22 23 23 23 23 23 24 24 25 25 26 26 27 27 27 27 27 27 27 27 27 27 28 28 28 28 28 27 27 27 26 26 26 26 26 26 26 26 26 27 27 28 28 28 28 28 28
15 15 18 20 21 23 24 23 19 17 16 16 17 18 18 19 20 21 21 22 23 23 24 23 23 23 23 23 23 23 23 23 24 24 24 24 24 23 22 23 23 24 24 24 24 25 25 25 26 26 26 26 26 25 25 25 24 24 24 24 24 24 24 24 23 22 21 21 20 20 20 20 20 20 21 21 22 22 23 24 25 25 25 24 24 23
Wind_Direction
219 221 222 224 225 225 225 227 227 226 227 227 225 223 225 225 221 217 216 221 221 217 218 218 219 226 217 204 216 226 226 226 225 225 226 226 225 230 235 237 238 239 241 242 245 246 244 246 251 256 261 268 274 277 280 282 282 280 278 279 287 295 299 296 291 284 275 270 269 271 273 274 273 273 273 274 272 262 261 271 284 294 300 300 298 297
220 222 224 225 224 223 223 224 224 223 223 225 224 220 220 221 217 211 209 216 219 215 214 209 210 217 200 192 207 220 226 228 229 228 227 228 228 232 235 237 236 235 236 238 239 239 239 242 247 252 259 266 270 272 275 276 275 273 272 274 282 290 291 287 280 272 264 262 264 269 272 272 273 272 269 269 270 268 271 277 285 292 296 297 297 297
221 223 223 222 221 220 220 221 222 220 219 221 221 218 217 218 218 214 209 211 212 211 208 197 198 198 181 186 200 213 224 228 230 230 230 233 234 236 240 241 238 234 236 236 235 235 236 240 245 252 259 263 267 268 269 270 270 269 269 273 281 286 285 279 271 264 260 260 262 266 268 270 273 272 267 266 269 271 275 280 285 290 293 295 297 298
222 220 218 217 216 216 217 218 219 217 216 217 218 217 215 214 218 217 212 210 207 206 199 182 177 177 177 185 196 208 219 223 225 225 226 235 240 240 242 243 239 236 236 237 236 236 236 239 245 250 256 260 263 263 263 266 268 268 270 275 280 283 279 272 264 261 260 262 264 265 267 270 273 274 272 271 271 272 275 280 285 289 290 292 294 296
220 218 216 216 215 214 214 215 217 215 213 215 216 217 215 212 213 214 211 208 205 198 185 172 164 171 180 187 195 206 216 221 224 224 223 231 239 238 237 239 239 238 235 234 235 236 236 237 241 247 253 257 258 259 261 264 266 268 272 275 279 279 274 267 262 262 263 264 266 266 268 271 274 276 277 276 276 276 279 284 288 290 291 292 294 297
218 217 216 217 216 214 213 214 215 215 213 214 216 216 214 210 204 205 207 206 204 194 180 175 168 173 185 190 199 209 217 223 225 225 224 230 238 240 239 239 244 245 238 235 235 234 235 235 238 245 250 253 256 258 261 262 265 268 270 273 276 275 271 267 265 265 267 268 268 268 270 273 275 278 279 280 281 283 286 290 292 292 293 295 298 301
217 216 215 216 216 214 212 213 213 213 213 213 215 214 212 206 195 196 200 203 203 189 175 178 172 177 192 195 203 214 219 226 226 223 226 231 239 243 243 243 248 246 233 230 233 231 231 234 238 244 248 251 255 258 260 262 264 265 268 272 274 275 273 271 270 270 271 270 268 269 272 274 275 276 278 282 285 287 291 292 292 292 294 296 300 303
216 216 214 213 214 212 210 211 210 211 213 211 209 210 210 200 188 190 195 200 201 184 172 179 174 180 200 201 207 215 219 227 229 226 229 233 237 241 243 243 244 240 226 222 225 224 228 233 239 244 247 250 254 256 258 259 260 263 268 272 275 275 275 273 272 273 271 269 267 268 270 272 274 275 278 283 287 290 290 289 289 290 293 297 301 305
215 216 214 212 212 210 207 208 208 211 213 206 202 208 206 192 184 186 192 198 196 182 175 178 178 187 204 207 212 216 219 228 231 230 232 233 238 241 241 243 246 244 235 226 223 225 230 234 238 243 246 249 252 254 256 256 258 263 267 270 272 273 273 273 273 274 272 267 264 263 265 268 273 276 280 283 285 287 286 285 286 288 292 297 302 307
214 216 214 212 212 210 206 205 205 210 211 199 198 205 197 187 184 183 192 198 194 188 184 180 186 197 207 212 218 221 222 227 229 228 230 232 239 242 242 248 250 243 236 233 236 239 238 237 240 244 246 248 250 252 253 254 259 263 266 268 269 271 271 271 272 273 272 267 263 263 265 268 273 277 280 281 282 282 282 282 284 288 292 297 302 305
212 214 213 212 211 210 208 205 205 209 206 193 197 202 192 186 185 184 192 197 197 200 196 186 190 202 208 214 222 226 226 229 231 230 228 232 240 244 246 248 246 245 247 252 255 254 244 238 239 243 245 247 248 250 251 255 259 261 264 266 267 268 269 270 272 273 272 269 267 266 267 269 271 275 278 280 280 277 278 281 284 289 293 296 300 303
209 211 211 210 209 209 207 204 205 207 201 191 195 197 189 186 187 188 191 195 202 208 201 189 190 201 210 215 221 226 228 229 233 234 235 240 246 249 251 249 250 257 263 260 257 253 244 237 240 244 244 245 246 248 251 254 256 258 261 263 264 266 269 271 273 273 273 271 269 267 266 268 271 276 279 280 280 278 278 281 285 289 293 296 299 302
208 210 210 208 208 207 206 204 203 205 199 191 193 193 187 185 189 191 193 197 205 206 196 188 191 201 211 216 219 224 228 229 232 235 238 243 248 251 252 252 257 262 263 261 253 242 236 235 239 242 243 244 245 247 249 251 253 256 258 260 262 265 268 271 273 275 275 271 265 263 264 268 274 279 282 282 282 282 282 284 287 289 293 297 300 303
207 208 208 207 206 206 207 206 204 206 201 192 193 194 188 186 190 193 194 198 203 199 189 186 193 202 208 215 221 226 230 233 236 237 239 241 244 248 249 251 253 253 256 256 241 228 228 233 236 239 241 243 245 245 246 247 250 253 256 257 259 262 266 270 273 274 273 269 264 263 266 271 276 280 283 284 283 284 285 286 288 291 294 298 301 303
207 207 208 208 207 205 207 208 207 208 206 197 194 195 192 189 191 194 196 198 200 196 189 187 194 202 207 217 227 229 229 231 235 237 238 240 243 245 247 246 242 242 251 249 230 223 227 231 234 238 240 241 242 242 243 245 248 251 252 254 256 260 265 268 271 271 270 268 266 266 268 272 275 279 282 282 283 284 285 286 288 291 295 298 300 303
209 209 211 212 209 206 206 207 204 204 206 201 195 196 197 194 194 198 200 201 201 199 194 193 197 204 211 221 229 230 229 227 229 232 234 237 241 242 242 240 236 238 244 244 235 230 229 229 232 237 240 242 242 241 242 244 247 248 250 252 255 259 264 267 269 270 269 267 266 267 268 270 274 277 279 281 283 284 285 287 289 291 294 296 298 302
209 209 210 213 213 209 206 207 205 203 204 203 200 200 201 196 196 202 204 204 203 202 201 202 203 208 214 220 224 228 231 230 228 228 231 233 236 238 238 235 236 237 239 243 242 236 234 233 233 235 238 240 241 241 242 244 245 247 248 250 253 257 261 265 268 269 268 267 267 268 269 271 273 276 280 282 284 284 285 287 289 291 292 294 297 304
208 208 207 211 214 211 207 205 206 206 205 206 208 205 199 195 196 202 205 205 204 204 206 209 211 214 218 222 224 226 231 234 233 230 229 230 233 237 239 237 239 241 243 248 245 237 234 234 233 234 235 236 238 240 241 243 245 246 247 249 252 256 260 264 267 268 268 268 268 269 270 271 274 277 280 283 284 284 285 288 289 290 292 296 301 306
204 205 205 208 211 211 208 204 205 207 206 208 211 206 198 196 196 200 204 206 206 208 210 214 217 219 223 228 231 231 234 239 239 234 231 232 237 244 247 245 246 251 257 261 256 247 237 233 233 233 233 232 235 238 239 242 244 245 247 250 253 257 261 266 269 270 269 268 268 269 269 271 274 276 280 282 283 284 285 287 289 290 293 297 301 304
200 201 203 206 206 204 206 207 209 210 207 204 203 200 200 200 199 200 205 207 208 210 212 215 219 223 226 230 231 232 235 237 236 234 234 237 242 249 254 254 255 258 264 265 262 256 244 235 233 233 231 231 233 236 238 240 243 245 247 250 254 258 263 267 271 272 271 270 268 268 269 270 273 277 280 282 283 284 285 288 289 291 293 297 299 301
196 195 198 203 199 196 205 212 213 211 209 207 204 199 198 200 200 201 205 209 210 212 215 219 223 226 227 228 227 227 229 231 233 234 236 237 241 247 252 255 257 260 262 261 255 252 249 241 234 232 231 231 232 235 238 240 243 244 247 251 254 259 264 268 272 275 274 272 269 268 269 270 274 278 281 283 285 286 287 289 290 291 293 294 296 299
193 191 193 200 201 202 210 214 212 212 213 213 212 206 200 199 199 200 204 208 211 215 219 223 226 226 224 224 225 225 226 228 231 234 236 237 238 242 248 251 254 256 258 257 251 247 247 243 238 236 235 233 233 235 238 240 242 245 248 251 255 259 264 269 274 277 276 274 271 270 270 272 275 279 282 284 286 288 289 289 289 290 291 292 294 295
190 187 187 195 204 209 212 210 207 212 216 214 213 210 202 199 200 202 205 207 210 216 219 220 222 222 221 221 222 225 226 226 228 233 236 237 237 240 243 246 248 251 255 254 250 246 244 241 241 240 237 234 233 235 238 241 243 246 249 252 256 261 265 270 273 276 276 275 275 274 274 275 277 280 282 284 286 289 289 288 288 288 289 290 293 295
187 183 182 190 200 204 207 205 196 200 211 212 211 209 204 202 202 203 205 207 211 216 217 216 217 218 219 220 221 223 225 225 226 230 234 236 238 238 239 240 242 246 251 250 247 245 242 240 238 237 234 232 233 234 238 241 243 246 250 254 258 262 267 271 273 275 276 277 278 279 279 279 278 279 281 283 285 286 286 286 286 287 288 289 291 293
187 183 182 190 196 193 193 192 187 191 202 207 209 209 206 204 203 202 204 207 213 218 218 217 218 219 220 221 221 221 223 225 227 232 234 234 237 239 239 240 242 245 248 247 244 242 240 238 236 235 234 234 233 235 239 242 244 247 252 256 259 264 269 272 274 275 276 277 280 282 283 282 281 280 280 281 283 284 284 285 285 286 287 288 289 291
186 184 184 191 197 194 192 191 190 194 199 201 204 207 206 203 200 200 202 206 211 217 220 220 221 222 222 223 223 221 220 224 229 235 236 236 239 243 245 245 245 246 246 244 241 240 238 236 236 236 236 235 234 236 239 243 246 250 255 258 261 266 270 273 275 276 276 278 282 284 284 284 283 281 281 281 281 282 283 284 285 285 286 287 288 290
184 184 185 190 196 199 199 197 194 196 201 203 201 201 204 203 199 198 200 205 209 214 219 222 223 224 226 227 228 227 226 230 235 237 237 237 240 244 245 245 245 246 245 242 240 240 237 235 234 236 236 234 233 236 240 244 248 252 258 262 264 267 271 273 275 277 279 281 284 285 285 285 284 283 282 282 282 282 283 284 284 285 285 286 286 288
185 185 186 190 195 197 198 197 195 197 203 206 200 196 200 203 200 199 201 204 209 213 217 221 223 224 228 230 231 233 235 235 236 235 234 235 237 240 242 243 244 246 246 243 241 240 237 233 231 232 234 234 235 239 243 247 251 256 261 265 267 269 271 273 276 280 281 283 285 285 286 286 286 285 284 283 283 283 283 283 284 284 285 285 286 287
189 188 188 191 193 193 193 193 194 197 201 202 197 193 196 201 201 202 205 206 210 215 217 219 221 223 225 226 225 226 228 228 228 228 228 230 234 239 243 245 245 246 246 244 241 239 236 233 230 230 232 235 237 242 246 250 255 260 264 267 269 271 273 275 279 282 282 283 285 285 286 286 287 286 285 284 284 283 283 283 283 284 284 285 285 286
191 193 192 192 190 189 189 190 191 195 196 193 191 192 195 199 202 205 208 209 210 215 219 220 220 220 221 223 222 219 219 222 223 224 225 230 239 245 247 247 246 244 243 242 240 237 236 234 230 228 231 235 239 245 249 253 257 262 265 268 270 273 275 278 280 282 283 284 285 285 286 287 287 287 287 286 285 284 284 284 284 285 285 285 285 286
193 194 192 190 189 188 187 187 190 195 194 189 189 194 196 198 202 206 211 212 212 214 219 219 219 219 219 220 220 220 221 221 222 227 235 243 248 249 249 249 247 245 243 240 237 235 235 234 229 227 230 235 240 245 249 253 257 261 265 269 272 274 277 279 281 282 283 284 285 285 287 288 288 288 287 287 286 286 286 285 285 285 285 285 285 286
193 192 187 185 189 190 188 188 192 195 194 190 190 195 198 200 204 207 210 212 212 214 218 218 218 218 219 221 225 229 233 233 235 242 248 250 249 248 249 252 251 247 242 237 233 232 232 229 225 224 230 235 241 246 250 254 258 262 266 270 273 276 278 281 282 283 284 285 286 286 287 288 289 288 287 287 287 287 286 286 286 286 285 285 285 286
191 193 188 186 190 193 192 191 192 193 193 193 193 197 200 202 205 208 208 209 211 214 218 219 219 218 219 224 231 237 242 244 245 246 247 246 246 247 249 252 251 245 239 233 229 227 227 224 222 224 230 237 243 248 251 254 257 262 267 271 275 277 279 280 282 283 284 285 286 287 288 289 289 288 288 287 287 286 286 286 286 286 286 286 286 287
191 193 192 191 193 195 195 193 192 192 193 196 199 201 203 203 203 205 206 207 209 211 213 216 217 217 218 223 229 234 239 240 239 240 242 243 242 242 244 248 245 238 234 230 226 224 223 223 223 228 234 240 245 248 250 254 258 263 267 271 275 277 278 279 281 283 284 286 287 288 289 289 289 288 288 288 287 287 286 286 286 286 287 287 287 288
191 194 195 194 195 197 196 193 193 193 193 197 202 204 206 206 205 205 206 209 211 211 211 212 216 218 220 225 229 233 236 236 234 239 243 240 235 235 238 240 237 230 227 227 226 225 224 224 226 231 236 241 244 246 250 255 260 264 268 272 274 276 278 279 281 283 285 286 287 288 289 289 289 289 289 288 287 287 287 286 286 286 287 287 288 289
192 195 197 195 195 199 198 195 195 196 195 198 202 204 207 207 206 207 210 213 215 213 212 214 218 219 220 224 228 232 236 237 238 240 241 234 230 231 231 231 229 225 225 226 227 226 226 226 230 234 238 241 244 248 252 257 262 266 269 272 274 276 278 280 282 284 285 286 287 288 289 290 290 290 290 289 288 287 287 286 286 286 286 286 286 288
194 196 198 196 196 200 200 198 198 199 200 202 202 201 205 206 205 207 210 214 215 213 212 216 220 222 223 226 230 233 237 240 241 240 237 231 228 229 230 230 229 227 225 224 224 224 226 230 234 238 241 243 246 250 255 260 264 267 270 272 275 277 279 281 282 283 285 286 288 289 290 291 291 291 290 290 289 288 287 286 286 285 284 284 285 285
196 198 199 198 198 200 201 201 202 201 202 205 204 202 204 206 206 208 210 214 216 216 217 220 222 224 226 229 232 235 238 240 241 240 236 231 227 227 228 230 230 228 226 225 225 227 230 233 237 240 242 246 250 255 259 263 266 268 270 273 275 277 279 280 282 284 285 287 288 289 290 291 291 291 291 290 289 288 287 286 285 285 284 284 284 285
198 200 202 203 203 203 204 205 206 204 204 206 206 206 206 208 211 213 214 215 216 218 220 222 224 226 229 232 236 238 241 243 242 240 237 232 228 225 224 224 224 226 228 229 229 231 234 236 239 243 246 250 254 258 261 263 266 268 270 273 274 276 278 280 282 284 286 286 288 289 291 292 292 292 291 291 290 289 288 287 286 286 285 284 285 285
197 200 203 205 206 207 209 210 208 204 205 207 208 208 210 213 215 216 217 218 220 222 223 223 225 228 232 236 239 241 244 245 242 239 235 228 224 224 223 221 220 224 229 232 233 234 236 239 243 247 250 253 256 258 261 263 266 268 270 273 275 277 279 281 283 284 286 287 289 291 292 292 293 293 293 292 292 291 291 290 289 289 288 287 287 286
196 199 203 205 207 209 212 213 208 205 206 209 211 213 217 223 223 218 218 221 226 229 228 226 226 228 233 237 240 241 244 244 242 239 231 223 220 221 221 220 221 226 231 233 235 237 240 243 247 250 253 255 257 260 262 264 266 269 271 273 275 277 279 281 283 285 287 289 290 291 292 292 294 294 294 294 293 292 292 292 292 292 291 291 290 289
195 198 202 205 207 209 212 213 211 210 210 212 215 218 223 229 232 231 232 231 230 230 229 228 229 231 233 236 237 237 240 240 238 232 224 218 218 218 218 219 224 228 232 236 239 241 244 247 250 252 255 257 259 261 264 266 268 270 272 273 275 277 279 282 284 286 288 289 290 290 292 293 294 294 294 294 294 293 292 292 292 292 292 292 291 290
200 202 203 204 206 209 211 213 214 215 216 217 221 224 229 234 236 239 240 235 229 228 227 227 228 231 234 235 232 228 228 227 223 218 215 215 218 219 219 223 227 230 233 236 240 243 245 248 251 254 257 259 261 263 265 267 269 271 272 274 276 278 281 283 285 286 288 289 290 291 292 293 294 294 294 294 294 293 293 293 292 292 292 291 290 289
207 208 207 207 208 210 211 213 215 217 219 223 226 229 234 237 236 236 236 232 228 228 229 227 227 229 230 227 219 214 212 211 210 211 215 220 224 226 228 229 231 233 235 239 243 246 248 251 254 257 260 262 264 266 268 269 270 271 273 275 277 280 282 285 286 288 288 289 290 292 293 294 294 295 295 295 295 294 294 293 292 292 291 290 289 288
210 211 213 213 214 214 214 215 216 216 218 222 226 228 233 235 230 226 225 224 223 221 218 217 219 219 217 213 209 207 206 206 209 215 221 225 229 232 233 235 236 238 241 245 248 250 252 254 257 259 262 264 267 269 270 271 272 273 275 277 280 283 285 287 288 288 289 290 292 293 294 295 296 296 296 296 295 294 293 292 291 290 289 288 287 286
209 212 213 212 211 212 213 213 214 215 217 222 225 227 232 234 224 214 210 210 211 209 203 201 202 202 204 208 212 213 213 213 217 221 225 229 233 235 236 238 240 243 246 249 252 253 254 256 258 260 263 266 268 270 272 273 274 276 278 281 284 286 287 287 288 290 291 293 294 296 296 297 297 297 296 296 295 294 293 292 292 290 289 288 287 286
209 209 207 206 206 208 209 209 211 213 218 222 224 224 226 225 217 210 205 204 205 207 205 205 205 204 204 208 212 214 215 219 223 226 230 234 236 238 240 241 242 245 249 251 253 254 256 258 261 263 266 268 270 272 273 275 277 279 282 284 285 286 287 289 291 292 294 295 296 297 297 297 297 297 297 296 296 295 294 293 292 291 290 288 287 286
209 208 209 211 211 210 208 207 207 212 217 219 218 216 217 215 212 211 209 206 204 205 207 208 209 209 210 212 214 215 218 223 227 230 233 236 239 241 242 243 246 249 252 254 255 256 258 261 263 266 268 270 271 273 275 278 280 282 283 284 286 288 289 291 292 294 296 297 298 298 298 299 299 299 300 300 299 299 298 297 296 295 294 292 290 288
207 211 213 214 211 208 206 205 207 213 217 215 212 211 211 211 209 208 208 207 206 206 209 210 210 211 212 215 217 219 223 227 230 233 236 238 241 243 244 247 250 252 253 254 256 258 260 263 265 267 269 271 273 275 277 279 281 282 283 285 287 289 291 292 294 296 298 299 300 301 302 303 304 305 306 307 307 307 307 307 306 304 302 300 298 295
205 214 215 213 209 203 200 202 205 208 209 207 205 205 206 206 205 203 203 206 207 208 210 212 213 215 216 218 220 223 227 230 234 236 238 240 242 243 246 248 250 252 253 255 258 261 264 266 268 269 271 273 274 276 278 280 281 283 285 287 289 290 292 294 296 298 300 303 305 307 309 311 313 315 317 319 321 323 324 324 323 322 320 318 314 310
187 194 195 201 205 200 196 196 194 194 195 194 193 194 197 199 200 200 201 203 205 208 210 212 214 216 219 222 224 227 230 233 235 237 239 241 243 244 246 247 249 252 255 259 262 265 267 268 270 271 272 274 276 278 279 280 282 284 286 288 290 291 294 296 299 302 305 307 310 312 316 319 323 328 333 338 343 346 348 350 351 352 351 348 344 339
Height
5721 5723 5726 5732 5737 5740 5743 5746 5750 5754 5757 5760 5764 5767 5769 5772 5774 5778 5780 5779 5781 5783 5785 5788 5790 5792 5793 5794 5795 5797 5797 5797 5799 5803 5806 5808 5811 5812 5813 5815 5816 5818 5819 5820 5821 5823 5824 5825 5826 5827 5828 5829 5829 5829 5830 5831 5831 5832 5832 5832 5833 5833 5833 5833 5833 5834 5834 5833 5833 5832 5831 5830 5830 5829 5829 5829 5829 5829 5829 5828 5828 5828 5827 5826 5825 5824
5715 5719 5724 5730 5734 5738 5741 5744 5747 5751 5755 5758 5761 5764 5766 5768 5770 5773 5775 5776 5778 5781 5784 5786 5787 5788 5791 5792 5792 5793 5794 5794 5797 5801 5804 5806 5809 5810 5811 5812 5814 5815 5816 5818 5820 5821 5822 5823 5824 5826 5827 5828 5828 5828 5829 5829 5830 5830 5830 5831 5831 5831 5832 5832 5832 5832 5832 5832 5831 5830 5829 5828 5827 5827 5827 5827 5827 5827 5827 5827 5826 5826 5825 5824 5823 5822
5710 5716 5722 5726 5730 5734 5737 5740 5743 5748 5752 5754 5757 5760 5763 5765 5768 5770 5771 5772 5774 5778 5782 5784 5785 5786 5789 5791 5790 5790 5791 5793 5796 5800 5802 5804 5807 5808 5809 5811 5812 5813 5814 5817 5818 5819 5820 5822 5823 5824 5825 5826 5826 5826 5827 5828 5828 5828 5829 5829 5829 5830 5830 5830 5831 5831 5830 5830 5829 5828 5828 5827 5826 5825 5825 5824 5825 5825 5825 5825 5824 5824 5823 5822 5820 5819
5707 5713 5718 5721 5726 5730 5733 5736 5740 5744 5748 5750 5753 5756 5759 5763 5765 5767 5769 5770 5771 5775 5780 5782 5782 5784 5787 5788 5788 5788 5789 5791 5794 5796 5799 5801 5804 5806 5807 5808 5809 5810 5812 5814 5816 5817 5819 5820 5821 5822 5823 5824 5824 5824 5825 5825 5826 5826 5826 5827 5827 5828 5828 5828 5829 5829 5828 5828 5827 5826 5825 5824 5823 5823 5823 5822 5823 5823 5823 5823 5822 5822 5821 5819 5818 5817
5705 5710 5715 5719 5722 5726 5730 5733 5736 5740 5744 5746 5749 5753 5757 5761 5764 5766 5767 5767 5769 5772 5776 5778 5779 5782 5784 5785 5785 5785 5786 5788 5790 5793 5796 5798 5800 5802 5804 5806 5807 5809 5812 5813 5814 5815 5817 5818 5820 5821 5821 5821 5821 5822 5822 5823 5823 5824 5824 5825 5826 5826 5826 5826 5826 5826 5826 5825 5824 5823 5822 5822 5821 5821 5820 5820 5821 5821 5821 5821 5820 5819 5818 5817 5816 5815
5701 5707 5712 5716 5719 5723 5727 5730 5733 5737 5741 5744 5747 5750 5755 5760 5762 5763 5764 5765 5766 5769 5772 5773 5775 5779 5782 5783 5783 5783 5784 5786 5788 5792 5794 5796 5797 5799 5802 5804 5806 5809 5811 5812 5813 5814 5815 5817 5818 5819 5819 5819 5819 5819 5820 5821 5821 5822 5823 5823 5824 5824 5824 5824 5824 5823 5823 5823 5822 5821 5820 5819 5819 5818 5818 5818 5819 5819 5818 5818 5817 5817 5815 5814 5813 5812
5698 5703 5708 5712 5716 5720 5724 5727 5731 5735 5738 5741 5745 5749 5753 5757 5759 5760 5760 5762 5764 5767 5770 5772 5773 5776 5779 5780 5780 5781 5782 5785 5787 5790 5792 5793 5794 5797 5800 5802 5805 5808 5810 5810 5811 5812 5814 5815 5816 5816 5817 5817 5817 5817 5818 5819 5819 5820 5821 5821 5822 5822 5821 5821 5821 5821 5821 5820 5819 5818 5818 5817 5817 5816 5816 5816 5816 5816 5816 5815 5815 5814 5813 5812 5811 5810
5695 5699 5703 5708 5712 5716 5720 5724 5728 5731 5734 5738 5744 5747 5750 5754 5756 5757 5758 5759 5762 5764 5767 5770 5772 5775 5777 5778 5778 5780 5781 5783 5785 5787 5789 5790 5791 5794 5797 5800 5803 5807 5808 5809 5809 5810 5812 5813 5813 5814 5814 5815 5815 5815 5816 5817 5818 5818 5819 5819 5819 5819 5819 5818 5818 5818 5818 5818 5817 5816 5816 5815 5815 5814 5814 5814 5814 5814 5813 5813 5813 5812 5811 5810 5809 5807
5692 5695 5700 5704 5707 5712 5717 5722 5726 5728 5731 5738 5743 5745 5748 5752 5754 5755 5756 5758 5760 5760 5761 5767 5770 5772 5774 5775 5776 5778 5780 5781 5782 5784 5786 5787 5789 5791 5795 5799 5802 5805 5807 5808 5808 5809 5810 5811 5811 5812 5812 5813 5813 5813 5814 5815 5816 5816 5817 5817 5817 5816 5816 5816 5816 5816 5816 5816 5815 5814 5814 5813 5813 5813 5812 5812 5812 5812 5811 5811 5811 5810 5809 5808 5806 5805
5688 5692 5697 5701 5705 5710 5715 5719 5723 5725 5730 5737 5740 5742 5745 5748 5750 5752 5754 5755 5756 5756 5757 5763 5767 5768 5769 5772 5773 5775 5777 5778 5779 5781 5783 5785 5787 5790 5794 5797 5800 5803 5805 5806 5807 5807 5808 5808 5809 5809 5810 5811 5811 5811 5812 5813 5814 5814 5814 5814 5814 5814 5814 5814 5814 5814 5814 5814 5813 5812 5812 5812 5811 5811 5811 5811 5811 5810 5810 5809 5809 5808 5807 5806 5805 5803
5685 5689 5693 5698 5703 5708 5713 5717 5720 5722 5728 5734 5736 5739 5742 5744 5747 5750 5751 5752 5752 5753 5754 5759 5764 5765 5766 5768 5769 5772 5775 5776 5777 5778 5780 5783 5786 5789 5793 5795 5798 5801 5803 5804 5804 5805 5805 5806 5807 5807 5808 5809 5809 5810 5810 5811 5811 5812 5812 5812 5812 5812 5812 5812 5812 5812 5812 5811 5811 5810 5810 5810 5810 5810 5810 5810 5809 5809 5808 5808 5807 5806 5805 5804 5803 5801
5679 5683 5688 5695 5699 5704 5709 5713 5717 5720 5725 5730 5732 5735 5738 5741 5744 5746 5748 5748 5748 5750 5754 5758 5761 5762 5764 5765 5767 5769 5772 5774 5775 5777 5780 5783 5786 5788 5791 5794 5796 5798 5799 5799 5800 5801 5803 5803 5804 5805 5806 5807 5807 5808 5808 5809 5809 5809 5810 5810 5810 5810 5809 5810 5810 5809 5809 5809 5808 5808 5807 5807 5808 5808 5808 5808 5807 5807 5806 5806 5805 5804 5803 5801 5800 5799
5675 5680 5686 5691 5695 5699 5703 5707 5711 5714 5719 5724 5727 5730 5733 5737 5740 5741 5743 5743 5744 5748 5753 5755 5758 5760 5761 5762 5765 5767 5769 5771 5774 5777 5779 5782 5784 5786 5789 5792 5794 5795 5795 5796 5796 5798 5799 5800 5801 5803 5804 5805 5805 5806 5806 5806 5807 5807 5807 5808 5808 5807 5807 5807 5807 5807 5807 5806 5806 5805 5805 5805 5805 5806 5806 5805 5805 5804 5804 5803 5802 5802 5800 5799 5798 5796
5672 5677 5681 5685 5690 5695 5699 5703 5706 5709 5713 5718 5721 5724 5727 5731 5733 5736 5738 5739 5742 5747 5750 5752 5756 5758 5758 5760 5763 5766 5768 5770 5772 5775 5777 5779 5781 5784 5787 5790 5791 5792 5793 5793 5793 5795 5796 5798 5799 5800 5801 5802 5803 5803 5803 5804 5804 5805 5805 5805 5805 5805 5805 5805 5804 5804 5804 5804 5803 5803 5803 5803 5803 5803 5803 5803 5802 5802 5801 5801 5800 5799 5798 5796 5795 5794
5667 5672 5676 5680 5686 5691 5695 5699 5704 5708 5712 5716 5719 5722 5725 5727 5730 5733 5736 5738 5741 5745 5748 5750 5752 5753 5755 5758 5760 5763 5765 5767 5770 5772 5775 5777 5780 5782 5785 5788 5789 5790 5790 5790 5791 5792 5794 5795 5796 5797 5798 5799 5800 5800 5801 5801 5802 5803 5803 5803 5803 5803 5803 5802 5802 5802 5801 5801 5801 5801 5801 5801 5801 5800 5800 5800 5799 5799 5799 5799 5798 5797 5795 5794 5792 5791
5666 5671 5676 5679 5683 5688 5692 5696 5701 5706 5710 5714 5718 5720 5723 5726 5729 5732 5736 5738 5741 5745 5746 5747 5747 5749 5752 5756 5758 5760 5761 5763 5766 5769 5772 5775 5778 5781 5783 5785 5786 5787 5787 5788 5790 5790 5791 5792 5794 5795 5796 5797 5798 5798 5799 5799 5800 5801 5801 5801 5801 5801 5800 5800 5799 5799 5799 5799 5799 5799 5799 5799 5798 5798 5797 5797 5797 5797 5796 5796 5795 5794 5792 5791 5790 5788
5664 5669 5674 5677 5681 5686 5689 5694 5698 5701 5706 5710 5713 5717 5721 5725 5728 5731 5735 5737 5740 5742 5743 5744 5744 5746 5749 5752 5755 5757 5757 5759 5761 5765 5768 5772 5775 5778 5780 5782 5783 5784 5785 5786 5787 5788 5789 5790 5791 5792 5793 5794 5795 5796 5796 5797 5798 5798 5798 5799 5799 5798 5798 5797 5797 5797 5797 5797 5797 5796 5796 5796 5796 5795 5795 5794 5794 5794 5793 5792 5792 5790 5789 5788 5787 5785
5662 5667 5671 5674 5678 5682 5687 5692 5695 5699 5703 5707 5710 5716 5720 5722 5725 5729 5732 5734 5737 5739 5740 5741 5742 5745 5747 5748 5751 5753 5755 5756 5758 5761 5765 5769 5772 5774 5777 5779 5780 5781 5782 5783 5784 5785 5786 5788 5789 5790 5790 5792 5792 5793 5794 5794 5795 5796 5796 5796 5796 5796 5795 5795 5795 5795 5795 5795 5794 5794 5794 5793 5793 5793 5792 5792 5791 5791 5790 5789 5788 5787 5786 5785 5783 5782
5659 5664 5668 5671 5675 5680 5683 5688 5691 5695 5700 5703 5708 5715 5717 5719 5722 5725 5727 5730 5733 5735 5736 5737 5740 5742 5744 5745 5749 5753 5754 5756 5759 5761 5764 5767 5770 5771 5773 5775 5776 5778 5780 5781 5781 5782 5784 5785 5786 5787 5788 5789 5790 5791 5791 5792 5792 5793 5793 5793 5793 5793 5793 5793 5793 5793 5793 5792 5792 5791 5791 5791 5791 5790 5790 5789 5788 5787 5787 5786 5785 5784 5782 5781 5780 5779
5656 5661 5665 5669 5674 5678 5680 5683 5687 5691 5695 5698 5703 5709 5714 5717 5720 5722 5724 5727 5730 5731 5732 5733 5736 5738 5740 5743 5748 5752 5753 5755 5758 5760 5762 5765 5767 5768 5770 5772 5773 5775 5777 5779 5780 5780 5781 5782 5783 5784 5785 5786 5787 5788 5788 5789 5790 5790 5790 5790 5790 5790 5791 5791 5791 5791 5790 5790 5789 5789 5789 5789 5788 5788 5787 5786 5785 5784 5783 5783 5782 5780 5779 5778 5777 5776
5653 5658 5663 5667 5671 5674 5675 5679 5684 5687 5691 5695 5699 5704 5709 5713 5716 5720 5722 5725 5727 5729 5729 5730 5732 5735 5738 5741 5745 5748 5750 5752 5754 5757 5759 5761 5763 5765 5766 5768 5771 5773 5775 5776 5777 5778 5779 5779 5780 5780 5781 5783 5784 5785 5786 5787 5787 5787 5787 5787 5788 5788 5788 5789 5788 5788 5788 5787 5787 5786 5786 5786 5786 5785 5784 5783 5782 5781 5780 5779 5778 5777 5776 5775 5773 5773
5650 5656 5661 5665 5667 5670 5672 5677 5684 5688 5691 5695 5699 5702 5706 5709 5713 5716 5718 5721 5725 5727 5728 5729 5732 5735 5738 5740 5743 5745 5747 5750 5752 5754 5756 5757 5759 5761 5763 5766 5768 5770 5771 5772 5773 5774 5775 5776 5776 5777 5778 5779 5781 5782 5783 5784 5784 5784 5784 5785 5785 5786 5786 5786 5786 5785 5785 5784 5784 5783 5783 5783 5783 5782 5781 5780 5779 5778 5777 5776 5775 5774 5773 5771 5770 5770
5649 5653 5659 5662 5665 5669 5673 5678 5684 5688 5691 5694 5697 5701 5704 5707 5710 5713 5715 5719 5722 5724 5726 5728 5731 5734 5736 5738 5741 5743 5745 5748 5750 5752 5753 5754 5756 5758 5761 5764 5765 5767 5768 5769 5770 5771 5772 5773 5773 5774 5775 5777 5778 5779 5781 5781 5782 5781 5781 5782 5783 5783 5783 5783 5783 5782 5781 5781 5781 5780 5780 5780 5779 5778 5777 5776 5776 5775 5774 5773 5772 5771 5769 5768 5767 5766
5647 5651 5656 5660 5662 5667 5673 5679 5683 5686 5688 5690 5693 5697 5701 5704 5707 5710 5714 5718 5720 5721 5723 5725 5728 5730 5733 5736 5738 5741 5743 5745 5747 5749 5750 5752 5754 5756 5758 5760 5762 5764 5765 5766 5767 5768 5769 5771 5771 5772 5773 5775 5776 5777 5778 5778 5778 5778 5778 5779 5780 5780 5780 5780 5779 5779 5778 5778 5778 5777 5777 5776 5776 5775 5774 5773 5773 5772 5770 5770 5769 5768 5766 5765 5764 5763
5645 5649 5653 5657 5659 5663 5669 5674 5677 5680 5682 5685 5689 5693 5698 5702 5705 5708 5712 5715 5717 5718 5720 5723 5724 5727 5730 5733 5735 5738 5740 5742 5744 5746 5747 5749 5751 5753 5755 5757 5759 5760 5762 5763 5764 5765 5767 5768 5769 5770 5771 5772 5773 5774 5774 5775 5775 5775 5776 5776 5777 5777 5777 5776 5776 5775 5775 5775 5774 5774 5773 5773 5772 5771 5771 5770 5769 5768 5767 5766 5765 5764 5763 5762 5760 5759
5645 5648 5650 5653 5657 5659 5663 5666 5670 5673 5677 5681 5685 5690 5695 5699 5702 5705 5708 5711 5713 5715 5718 5719 5721 5724 5728 5730 5732 5735 5737 5739 5741 5743 5745 5747 5749 5751 5752 5754 5755 5757 5758 5760 5761 5762 5764 5765 5766 5768 5768 5769 5770 5770 5771 5771 5772 5772 5773 5773 5773 5773 5773 5773 5773 5771 5771 5771 5771 5770 5770 5769 5768 5768 5767 5766 5765 5765 5764 5763 5762 5760 5759 5758 5757 5756
5643 5646 5649 5652 5656 5660 5663 5666 5670 5673 5676 5678 5681 5686 5692 5696 5699 5702 5705 5707 5710 5713 5715 5716 5718 5722 5725 5727 5730 5732 5735 5737 5738 5740 5743 5745 5746 5748 5749 5750 5751 5753 5754 5756 5757 5759 5760 5761 5763 5764 5765 5765 5766 5766 5767 5768 5769 5769 5769 5769 5769 5770 5770 5770 5769 5768 5767 5767 5767 5766 5766 5766 5765 5764 5763 5762 5762 5761 5760 5759 5758 5757 5755 5754 5753 5752
5640 5644 5648 5652 5656 5660 5662 5666 5669 5672 5674 5676 5679 5683 5689 5694 5697 5699 5701 5704 5707 5710 5712 5713 5716 5719 5722 5725 5727 5730 5732 5734 5736 5738 5740 5741 5743 5745 5746 5747 5748 5749 5750 5752 5753 5755 5756 5757 5759 5760 5761 5762 5762 5763 5764 5765 5766 5766 5766 5766 5766 5766 5766 5766 5765 5764 5764 5763 5763 5763 5762 5762 5761 5760 5759 5759 5758 5757 5756 5755 5754 5753 5752 5750 5749 5748
5640 5644 5647 5651 5654 5657 5660 5663 5666 5669 5671 5674 5678 5682 5687 5691 5694 5696 5699 5701 5704 5707 5710 5712 5714 5717 5720 5722 5725 5727 5729 5731 5732 5734 5736 5738 5740 5741 5742 5743 5744 5745 5746 5748 5750 5751 5752 5753 5755 5756 5757 5758 5759 5760 5761 5762 5763 5763 5763 5763 5763 5762 5762 5762 5761 5761 5760 5760 5759 5759 5759 5758 5757 5756 5755 5754 5754 5753 5752 5751 5750 5749 5747 5746 5745 5744
5638 5642 5646 5649 5652 5654 5658 5662 5664 5666 5669 5672 5676 5680 5685 5688 5691 5693 5696 5699 5702 5705 5707 5710 5713 5715 5717 5719 5722 5724 5726 5728 5729 5730 5732 5734 5736 5738 5739 5740 5741 5741 5743 5744 5746 5747 5749 5750 5751 5752 5753 5754 5756 5757 5758 5759 5760 5760 5760 5760 5759 5759 5759 5758 5757 5757 5757 5757 5756 5755 5755 5754 5753 5752 5751 5750 5749 5748 5748 5746 5745 5744 5743 5742 5741 5740
5635 5639 5644 5647 5649 5652 5656 5659 5662 5664 5667 5670 5674 5678 5682 5685 5687 5690 5693 5695 5699 5701 5704 5707 5709 5711 5713 5716 5719 5721 5723 5725 5726 5728 5730 5731 5732 5734 5735 5735 5737 5738 5739 5741 5742 5744 5745 5746 5748 5749 5750 5751 5752 5753 5754 5756 5756 5756 5757 5756 5756 5756 5755 5754 5754 5754 5754 5753 5752 5752 5751 5750 5749 5748 5747 5746 5745 5744 5743 5742 5741 5740 5738 5737 5736 5735
5633 5637 5641 5645 5648 5651 5654 5657 5659 5662 5665 5668 5672 5675 5679 5682 5684 5687 5689 5692 5695 5697 5699 5702 5705 5708 5711 5713 5715 5718 5720 5722 5724 5725 5726 5727 5729 5730 5731 5732 5733 5735 5736 5737 5738 5739 5741 5742 5744 5745 5746 5748 5749 5750 5751 5753 5753 5753 5753 5753 5753 5752 5751 5751 5750 5750 5750 5749 5748 5748 5747 5746 5745 5744 5743 5742 5741 5740 5739 5737 5736 5735 5734 5733 5732 5731
5631 5635 5639 5643 5646 5649 5652 5655 5658 5661 5663 5667 5670 5672 5676 5679 5681 5684 5687 5689 5692 5694 5697 5700 5703 5707 5709 5711 5713 5715 5717 5719 5721 5722 5723 5724 5726 5728 5728 5729 5730 5731 5732 5733 5734 5735 5737 5738 5740 5741 5743 5745 5746 5747 5749 5749 5750 5750 5750 5750 5749 5749 5748 5747 5747 5746 5746 5745 5744 5744 5743 5742 5741 5740 5739 5737 5736 5735 5734 5733 5732 5731 5729 5728 5727 5726
5630 5635 5638 5642 5645 5648 5651 5654 5657 5659 5662 5664 5667 5669 5673 5676 5679 5682 5685 5687 5689 5692 5696 5699 5702 5705 5707 5709 5711 5713 5715 5716 5718 5719 5720 5722 5724 5725 5726 5726 5727 5728 5728 5729 5730 5732 5733 5735 5737 5739 5741 5743 5743 5744 5745 5745 5746 5747 5747 5747 5746 5745 5744 5743 5742 5742 5742 5741 5740 5740 5739 5737 5736 5735 5734 5733 5732 5730 5729 5728 5727 5726 5725 5724 5723 5722
5629 5633 5636 5640 5644 5647 5650 5653 5656 5658 5660 5662 5664 5667 5670 5674 5678 5681 5683 5685 5687 5690 5693 5696 5698 5701 5704 5706 5708 5710 5712 5713 5715 5716 5718 5720 5721 5723 5724 5723 5723 5724 5725 5726 5727 5729 5731 5733 5736 5737 5738 5739 5740 5741 5742 5742 5743 5743 5743 5743 5742 5741 5740 5739 5738 5738 5738 5737 5736 5735 5734 5733 5732 5730 5729 5728 5727 5726 5724 5723 5723 5722 5721 5719 5718 5717
5629 5632 5635 5638 5642 5644 5648 5652 5654 5655 5658 5660 5662 5665 5668 5671 5675 5679 5681 5683 5685 5688 5691 5693 5695 5698 5701 5703 5705 5707 5709 5711 5713 5714 5715 5717 5718 5719 5720 5720 5720 5720 5722 5723 5725 5727 5730 5732 5733 5734 5735 5736 5737 5738 5739 5739 5739 5739 5739 5738 5737 5737 5736 5735 5735 5734 5734 5733 5732 5731 5730 5729 5727 5726 5725 5723 5722 5721 5720 5719 5718 5717 5716 5715 5714 5713
5628 5631 5634 5637 5640 5643 5646 5650 5652 5654 5657 5658 5660 5663 5666 5670 5673 5676 5679 5681 5683 5685 5688 5690 5693 5696 5699 5701 5703 5705 5707 5708 5710 5712 5713 5714 5714 5715 5716 5717 5717 5719 5720 5722 5724 5726 5728 5729 5730 5731 5732 5733 5733 5734 5735 5735 5735 5735 5734 5733 5733 5733 5732 5732 5731 5730 5730 5729 5728 5727 5726 5724 5723 5721 5720 5719 5717 5716 5715 5714 5712 5712 5711 5710 5709 5708
5628 5631 5634 5637 5639 5642 5645 5648 5650 5653 5655 5657 5659 5662 5666 5669 5672 5675 5678 5679 5681 5683 5686 5688 5691 5693 5696 5698 5700 5702 5703 5705 5707 5709 5710 5711 5711 5712 5713 5715 5716 5718 5720 5721 5723 5724 5726 5727 5727 5728 5729 5729 5730 5731 5732 5732 5732 5731 5730 5730 5729 5729 5729 5728 5727 5727 5726 5725 5724 5723 5721 5720 5718 5717 5715 5714 5712 5711 5710 5709 5707 5706 5705 5704 5703 5702
5627 5630 5633 5636 5639 5642 5644 5647 5649 5652 5654 5657 5659 5662 5665 5668 5671 5673 5675 5677 5679 5681 5684 5686 5689 5691 5693 5695 5697 5699 5701 5703 5705 5707 5707 5708 5709 5710 5711 5713 5715 5717 5718 5719 5721 5722 5723 5724 5724 5725 5726 5727 5728 5728 5728 5728 5728 5727 5727 5726 5726 5725 5725 5724 5724 5723 5722 5721 5720 5718 5717 5715 5714 5712 5710 5709 5708 5706 5705 5704 5702 5701 5700 5699 5698 5697
5625 5628 5631 5634 5637 5640 5643 5646 5649 5652 5654 5656 5658 5661 5663 5666 5669 5672 5674 5675 5678 5680 5682 5685 5687 5689 5691 5693 5695 5696 5698 5700 5702 5703 5704 5705 5706 5707 5709 5711 5713 5715 5715 5717 5718 5719 5720 5721 5722 5723 5724 5724 5725 5725 5724 5724 5724 5723 5723 5723 5722 5722 5721 5721 5720 5719 5718 5717 5715 5714 5712 5710 5709 5707 5706 5704 5703 5701 5700 5699 5697 5696 5694 5693 5692 5691
5624 5628 5631 5634 5637 5639 5642 5645 5648 5651 5653 5656 5658 5660 5663 5665 5667 5670 5673 5675 5677 5679 5681 5683 5685 5687 5688 5690 5692 5694 5696 5697 5699 5701 5702 5703 5704 5705 5708 5710 5711 5712 5713 5713 5715 5716 5717 5719 5720 5720 5720 5721 5721 5721 5721 5720 5720 5720 5720 5719 5719 5718 5718 5717 5716 5715 5714 5712 5710 5709 5707 5706 5704 5703 5701 5700 5698 5697 5695 5694 5692 5691 5689 5688 5686 5685
5624 5627 5630 5633 5636 5639 5641 5643 5646 5649 5652 5655 5657 5659 5661 5663 5665 5668 5671 5673 5674 5676 5678 5680 5682 5684 5685 5686 5689 5691 5693 5694 5697 5699 5700 5701 5702 5704 5707 5709 5709 5710 5710 5711 5712 5714 5715 5716 5716 5716 5717 5717 5718 5717 5717 5717 5717 5716 5716 5716 5715 5715 5714 5713 5712 5710 5709 5707 5706 5704 5703 5701 5700 5698 5696 5695 5693 5692 5690 5689 5687 5685 5684 5682 5681 5679
5625 5627 5630 5632 5634 5637 5639 5642 5645 5648 5651 5653 5655 5658 5660 5661 5664 5666 5668 5669 5671 5673 5675 5677 5678 5680 5682 5684 5686 5688 5689 5692 5694 5696 5697 5699 5700 5703 5705 5706 5707 5707 5708 5708 5710 5711 5712 5712 5713 5713 5713 5713 5714 5714 5714 5713 5713 5713 5713 5712 5712 5711 5710 5709 5707 5706 5704 5703 5702 5700 5698 5697 5695 5693 5691 5690 5688 5686 5685 5683 5681 5680 5678 5676 5675 5673
5624 5626 5629 5631 5634 5636 5639 5641 5644 5647 5650 5652 5654 5656 5658 5659 5661 5663 5664 5666 5668 5669 5670 5673 5675 5678 5680 5683 5684 5685 5687 5689 5692 5693 5695 5696 5698 5700 5702 5703 5704 5704 5705 5705 5707 5708 5709 5709 5710 5710 5710 5710 5710 5710 5710 5710 5709 5709 5709 5708 5708 5706 5705 5704 5702 5701 5700 5699 5697 5696 5694 5692 5690 5688 5686 5685 5683 5681 5679 5677 5675 5674 5672 5670 5669 5667
5623 5625 5627 5630 5633 5636 5639 5641 5643 5646 5648 5650 5652 5654 5656 5656 5658 5659 5661 5663 5665 5666 5668 5671 5673 5675 5678 5680 5682 5683 5685 5687 5689 5690 5692 5694 5695 5697 5699 5700 5700 5700 5701 5702 5704 5705 5706 5707 5706 5706 5706 5706 5706 5706 5706 5706 5706 5705 5705 5704 5703 5701 5700 5699 5698 5697 5695 5694 5693 5691 5689 5687 5685 5683 5681 5679 5677 5675 5673 5671 5669 5667 5665 5663 5661 5660
5622 5624 5626 5629 5632 5634 5637 5639 5641 5643 5645 5648 5649 5651 5653 5654 5655 5657 5659 5661 5663 5664 5666 5669 5671 5673 5675 5678 5679 5681 5683 5684 5686 5688 5689 5691 5693 5695 5696 5697 5697 5697 5698 5700 5701 5702 5703 5703 5703 5703 5703 5703 5703 5703 5703 5702 5702 5701 5700 5700 5698 5697 5696 5695 5694 5692 5691 5690 5688 5686 5684 5682 5680 5678 5676 5673 5671 5669 5666 5664 5662 5659 5657 5655 5653 5652
5621 5623 5625 5628 5630 5632 5634 5637 5639 5641 5643 5646 5648 5649 5651 5653 5654 5655 5657 5659 5661 5662 5664 5666 5669 5671 5673 5675 5677 5679 5681 5682 5684 5686 5687 5689 5690 5692 5693 5693 5693 5694 5696 5697 5698 5699 5699 5699 5700 5700 5700 5700 5700 5700 5699 5698 5698 5697 5696 5696 5694 5693 5691 5691 5689 5688 5686 5685 5683 5682 5679 5677 5675 5673 5670 5668 5665 5663 5660 5657 5655 5652 5650 5647 5645 5643
5620 5622 5624 5627 5629 5631 5633 5636 5638 5640 5642 5644 5646 5647 5649 5651 5652 5654 5655 5657 5659 5661 5663 5665 5667 5670 5672 5674 5675 5677 5679 5680 5682 5683 5685 5686 5687 5689 5689 5690 5691 5693 5694 5694 5695 5695 5696 5696 5697 5697 5697 5697 5696 5696 5695 5695 5694 5693 5693 5692 5691 5689 5687 5686 5685 5684 5682 5680 5679 5677 5675 5672 5670 5668 5665 5663 5660 5657 5654 5651 5648 5645 5643 5640 5638 5635
5618 5621 5623 5625 5627 5630 5632 5634 5636 5638 5640 5642 5644 5645 5647 5649 5650 5652 5654 5656 5658 5660 5662 5664 5666 5668 5669 5671 5673 5675 5676 5678 5679 5681 5682 5683 5684 5686 5687 5688 5689 5690 5690 5691 5691 5692 5693 5693 5694 5694 5694 5693 5692 5692 5692 5691 5690 5690 5689 5689 5687 5685 5683 5682 5681 5679 5678 5676 5674 5672 5670 5668 5666 5664 5661 5658 5655 5652 5649 5646 5643 5640 5637 5634 5631 5629
5617 5619 5621 5623 5625 5628 5630 5633 5634 5636 5637 5639 5642 5644 5645 5647 5649 5651 5653 5655 5657 5659 5660 5662 5664 5666 5668 5669 5671 5673 5674 5676 5677 5678 5679 5680 5682 5683 5684 5685 5686 5686 5687 5688 5688 5689 5689 5690 5690 5690 5689 5689 5689 5688 5688 5688 5687 5686 5686 5685 5684 5682 5680 5678 5677 5676 5674 5672 5671 5669 5667 5665 5663 5660 5658 5655 5652 5649 5646 5643 5639 5636 5633 5630 5627 5624
5616 5618 5619 5622 5624 5627 5629 5631 5633 5635 5636 5638 5640 5642 5644 5646 5648 5650 5652 5654 5655 5657 5659 5661 5662 5664 5666 5668 5669 5671 5672 5673 5674 5675 5676 5677 5679 5680 5681 5682 5683 5683 5684 5685 5685 5686 5686 5686 5686 5686 5686 5686 5685 5685 5685 5684 5683 5683 5682 5682 5681 5679 5677 5675 5674 5673 5671 5670 5668 5667 5665 5663 5661 5658 5656 5653 5650 5647 5644 5641 5638 5635 5631 5628 5625 5622